Location: A�t Lahcen
(32.8243°N, 5.4246°W)
Time: 01:58:34
(UTC+00:00)

CZ-4B DEB - Pass Details

Date: 27 January 2021
Orbit: 841 x 861 km, 99.1° (Epoch: 27 February)

Event Time Altitude Azimuth Distance (km) Brightness Sun altitude
Rises 06:25:06 0° 11° (NNE) 3,443 7.3 -11.7°
Reaches altitude 10° 06:27:29 10° 11° (N) 2,502 6.6 -11.3°
Maximum altitude 06:33:03 80° 285° (WNW) 874 4.2 -10.1°
Drops below altitude 10° 06:38:33 10° 199° (SSW) 2,480 6.6 -9.0°
Sets 06:40:55 0° 198° (SSW) 3,410 7.3 -8.5°
